GW0659 Weather Reports


Display with metric or nautical units.
time (UTC)temp
F
wind
direction
speed
MPH
gust
MPH
rain 1hr
in
rain 24hr
in
rain mn
in
humidity
%
barometer
mb
20260503023318 59 21 0.0 0.0 0.00 0.00 0.00 42 1016.2
20260503022814 59 20 0.0 0.0 0.00 0.00 0.00 43 1016.4
20260503022314 59 24 0.0 0.0 0.00 0.00 0.00 42 1016.4
20260503021811 0 0.0 0.0 0.00 0.00 0.00 1016.3
20260503021307 0 0.0 0.0 0.00 0.00 0.00 1016.2
20260503020805 0 0.0 0.0 0.00 0.00 0.00 1016.0
20260503020302 64 282 4.0 4.0 0.00 0.00 0.00 34 1016.2
20260503015758 64 282 4.0 4.0 0.00 0.00 0.00 34 1016.2
20260503015255 64 282 4.0 4.0 0.00 0.00 0.00 34 1015.8
20260503014751 64 282 4.0 4.0 0.00 0.00 0.00 34 1015.9
20260503014249 64 282 4.0 4.0 0.00 0.00 0.00 34 1016.0
20260503013746 64 282 4.0 4.0 0.00 0.00 0.00 34 1016.0
20260503013244 64 282 4.0 4.0 0.00 0.00 0.00 34 1016.2
20260503012741 64 282 4.0 4.0 0.00 0.00 0.00 34 1016.3
20260503012238 64 282 4.0 4.0 0.00 0.00 0.00 34 1016.3
20260503011734 64 282 4.0 4.0 0.00 0.00 0.00 34 1016.2
20260503011232 64 282 4.0 4.0 0.00 0.00 0.00 34 1016.2
20260503010727 64 282 4.0 4.0 0.00 0.00 0.00 34 1016.3
20260503010225 64 261 4.0 6.0 0.00 0.00 0.00 33 1016.4
20260503005722 62 328 0.0 0.0 0.00 0.00 0.00 36 1016.4
20260503005220 62 328 0.0 0.0 0.00 0.00 0.00 36 1016.6
20260503004715 62 328 0.0 0.0 0.00 0.00 0.00 36 1016.5
20260503004214 62 315 0.0 0.0 0.00 0.00 0.00 35 1016.6
20260503003711 62 324 0.0 0.0 0.00 0.00 0.00 35 1016.8
20260503003208 62 302 0.0 0.0 0.00 0.00 0.00 36 1016.4
20260503002704 62 276 0.0 4.0 0.00 0.00 0.00 36 1016.7
20260503002201 62 288 4.0 6.0 0.00 0.00 0.00 36 1016.8
20260503001657 62 234 3.0 4.0 0.00 0.00 0.00 36 1016.8
20260503001154 62 298 2.0 4.0 0.00 0.00 0.00 36 1016.7
20260503000652 62 293 5.0 7.0 0.00 0.00 0.00 35 1016.9
20260503000149 63 264 1.0 2.0 0.00 0.00 0.00 35 1016.8
20260502235645 62 256 3.0 6.0 0.00 0.00 0.00 36 1016.7
20260502235144 62 254 3.0 4.0 0.00 0.00 0.00 35 1016.9
20260502234639 63 263 3.0 6.0 0.00 0.00 0.00 35 1017.2
20260502234137 62 282 3.0 7.0 0.00 0.00 0.00 35 1016.9
20260502233632 62 293 6.0 8.0 0.00 0.00 0.00 35 1016.9
20260502233129 63 270 3.0 3.0 0.00 0.00 0.00 35 1017.1
20260502232625 63 244 0.0 1.0 0.00 0.00 0.00 35 1017.2
20260502232123 63 233 2.0 2.0 0.00 0.00 0.00 34 1017.2
20260502231619 64 278 2.0 3.0 0.00 0.00 0.00 34 1017.3
20260502231118 64 245 5.0 8.0 0.00 0.00 0.00 33 1017.3
20260502230616 65 245 2.0 6.0 0.00 0.00 0.00 33 1017.3
20260502230114 65 255 3.0 4.0 0.00 0.00 0.00 33 1017.3
20260502225609 65 255 3.0 4.0 0.00 0.00 0.00 33 1017.4
20260502225106 65 255 3.0 4.0 0.00 0.00 0.00 33 1017.3
20260502224602 65 255 3.0 4.0 0.00 0.00 0.00 33 1017.4
20260502224059 64 272 6.0 8.0 0.00 0.00 0.00 33 1017.5
20260502223557 65 272 1.0 8.0 0.00 0.00 0.00 34 1017.6
20260502223055 65 314 2.0 3.0 0.00 0.00 0.00 34 1017.6
20260502222552 64 184 0.0 1.0 0.00 0.00 0.00 35 1017.9
20260502222048 63 160 2.0 3.0 0.00 0.00 0.00 36 1017.8
20260502221544 62 161 0.0 0.0 0.00 0.00 0.00 37 1018.1
20260502221042 63 265 3.0 6.0 0.00 0.00 0.00 36 1018.1
20260502220537 65 297 2.0 6.0 0.00 0.00 0.00 34 1018.1
20260502220034 63 194 0.0 7.0 0.00 0.00 0.00 35 1018.2
20260502215532 64 299 4.0 6.0 0.00 0.00 0.00 35 1018.3
20260502215028 63 324 5.0 8.0 0.00 0.00 0.00 36 1018.4
20260502214525 62 333 4.0 4.0 0.00 0.00 0.00 37 1018.3
20260502214023 62 287 4.0 4.0 0.00 0.00 0.00 37 1018.4
20260502213519 62 260 3.0 9.0 0.00 0.00 0.00 37 1018.5
20260502213018 62 294 6.0 8.0 0.00 0.00 0.00 37 1018.6
20260502212516 62 274 4.0 8.0 0.00 0.00 0.00 37 1018.6
20260502212013 63 262 2.0 7.0 0.00 0.00 0.00 36 1018.7
20260502211509 62 358 5.0 7.0 0.00 0.00 0.00 37 1018.6
20260502211006 63 355 6.0 13.0 0.00 0.00 0.00 37 1018.8
20260502210503 62 224 2.0 8.0 0.00 0.00 0.00 37 1018.8
20260502210000 62 287 1.0 2.0 0.00 0.00 0.00 37 1018.7
20260502205456 63 336 2.0 3.0 0.00 0.00 0.00 36 1019.1
20260502204954 63 207 0.0 4.0 0.00 0.00 0.00 36 1019.3
20260502204450 63 286 4.0 9.0 0.00 0.00 0.00 36 1018.9
20260502203948 63 268 7.0 10.0 0.00 0.00 0.00 36 1018.8
20260502203445 64 209 0.0 6.0 0.00 0.00 0.00 36 1019.3
20260502202941 63 192 1.0 3.0 0.00 0.00 0.00 37 1018.9
20260502202438 61 4 3.0 6.0 0.00 0.00 0.00 38 1019.1
20260502201937 63 277 0.0 3.0 0.00 0.00 0.00 37 1019.2
20260502201432 63 227 4.0 6.0 0.00 0.00 0.00 36 1019.2
20260502200929 64 174 0.0 4.0 0.00 0.00 0.00 36 1019.2
20260502200424 63 163 0.0 0.0 0.00 0.00 0.00 37 1019.4
20260502195923 63 161 2.0 3.0 0.00 0.00 0.00 36 1019.5
20260502195419 60 138 0.0 0.0 0.00 0.00 0.00 39 1019.6
20260502194916 60 335 0.0 2.0 0.00 0.00 0.00 40 1019.6
20260502194413 61 315 4.0 7.0 0.00 0.00 0.00 39 1019.6
20260502193909 62 256 2.0 8.0 0.00 0.00 0.00 38 1019.6
20260502193406 61 7 2.0 6.0 0.00 0.00 0.00 39 1019.7
20260502192901 61 55 3.0 4.0 0.00 0.00 0.00 38 1019.8
20260502192359 61 85 0.0 3.0 0.00 0.00 0.00 38 1019.8
20260502191856 60 285 5.0 7.0 0.00 0.00 0.00 40 1020.1
20260502191354 60 343 7.0 10.0 0.00 0.00 0.00 40 1020.0
20260502190851 59 356 7.0 10.0 0.00 0.00 0.00 41 1020.2
20260502190348 59 352 9.0 10.0 0.00 0.00 0.00 42 1020.2
20260502185844 59 356 2.0 13.0 0.00 0.00 0.00 42 1020.3
20260502185339 58 333 3.0 9.0 0.00 0.00 0.00 42 1020.3
20260502184837 58 349 10.0 11.0 0.00 0.00 0.00 42 1020.4
20260502184332 58 357 9.0 11.0 0.00 0.00 0.00 44 1020.4
20260502183829 58 355 11.0 13.0 0.00 0.00 0.00 43 1020.4
20260502183325 59 356 10.0 16.0 0.00 0.00 0.00 43 1020.3
20260502182820 58 4 6.0 10.0 0.00 0.00 0.00 44 1020.2
20260502182316 59 350 9.0 14.0 0.00 0.00 0.00 43 1020.3
20260502181813 58 350 9.0 13.0 0.00 0.00 0.00 43 1020.4
20260502181312 59 320 10.0 11.0 0.00 0.00 0.00 42 1020.4
20260502180809 59 0 7.0 10.0 0.00 0.00 0.00 43 1020.4
20260502180306 59 5 8.0 10.0 0.00 0.00 0.00 42 1020.5
20260502170225 56 350 7.0 8.0 0.00 0.00 0.00 47 1020.4
20260502164207 56 319 9.0 13.0 0.00 0.00 0.00 47 1020.7
20260502163702 56 319 9.0 13.0 0.00 0.00 0.00 47 1020.5
20260502163159 56 319 9.0 13.0 0.00 0.00 0.00 47 1020.6
20260502162655 56 319 9.0 13.0 0.00 0.00 0.00 47 1020.5
20260502162152 56 319 9.0 13.0 0.00 0.00 0.00 47 1020.7
20260502161650 56 315 10.0 11.0 0.00 0.00 0.00 47 1020.5
20260502161146 56 347 15.0 18.0 0.00 0.00 0.00 46 1020.7
20260502160644 56 349 14.0 16.0 0.00 0.00 0.00 46 1020.5
20260502160143 56 349 14.0 16.0 0.00 0.00 0.00 46 1020.4
20260502152057 55 0 14.0 17.0 0.00 0.00 0.00 50 1020.3
20260502151554 54 346 16.0 18.0 0.00 0.00 0.00 49 1020.2
20260502151051 54 349 15.0 18.0 0.00 0.00 0.00 50 1020.0
20260502150549 53 338 15.0 17.0 0.00 0.00 0.00 52 1020.1
20260502130433 47 3 8.0 10.0 0.00 0.00 0.00 56 1019.5
20260502123416 48 353 8.0 10.0 0.00 0.00 0.00 53 1019.4
20260502122913 49 335 11.0 11.0 0.00 0.00 0.00 52 1019.2
20260502122409 49 1 11.0 17.0 0.00 0.00 0.00 52 1019.1
20260502121908 50 358 13.0 17.0 0.00 0.00 0.00 50 1019.2
20260502121404 49 353 14.0 17.0 0.00 0.00 0.00 51 1018.9
20260502120902 49 347 10.0 14.0 0.00 0.00 0.00 51 1019.2
20260502120358 50 357 11.0 14.0 0.00 0.00 0.00 49 1019.1
20260502115855 50 4 12.0 19.0 0.00 0.00 0.00 49 1018.8
20260502115353 50 354 15.0 19.0 0.00 0.00 0.00 49 1018.6
20260502114848 49 359 13.0 15.0 0.00 0.00 0.00 49 1018.9
20260502114346 49 359 13.0 18.0 0.00 0.00 0.00 49 1018.8
20260502113843 50 339 9.0 10.0 0.00 0.00 0.00 49 1018.6
20260502113340 52 356 15.0 16.0 0.00 0.00 0.00 46 1018.8
20260502112838 52 356 15.0 16.0 0.00 0.00 0.00 46 1018.6
20260502112335 52 356 15.0 16.0 0.00 0.00 0.00 46 1018.5
20260502111833 50 345 13.0 15.0 0.00 0.00 0.00 48 1018.3
20260502111331 51 349 13.0 14.0 0.00 0.00 0.00 47 1018.4
20260502110828 51 19 9.0 10.0 0.00 0.00 0.00 48 1018.4
20260502110326 52 14 13.0 14.0 0.00 0.00 0.00 45 1018.2
20260502105823 53 2 11.0 14.0 0.00 0.00 0.00 45 1018.3
20260502105320 53 12 13.0 21.0 0.00 0.00 0.00 44 1017.8
20260502104817 53 24 18.0 22.0 0.00 0.00 0.00 43 1017.9
20260502104314 53 48 12.0 17.0 0.00 0.00 0.00 44 1017.6
20260502103812 53 39 13.0 21.0 0.00 0.00 0.00 43 1017.5
20260502103309 53 31 15.0 19.0 0.00 0.00 0.00 43 1017.5
20260502102806 53 41 14.0 17.0 0.00 0.00 0.00 43 1017.3
20260502102305 53 39 14.0 23.0 0.00 0.00 0.00 43 1017.4
20260502101800 53 54 12.0 22.0 0.00 0.00 0.00 42 1017.2
20260502101258 53 33 14.0 17.0 0.00 0.00 0.00 43 1017.4
20260502100756 51 36 10.0 15.0 0.00 0.00 0.00 44 1017.3
20260502100255 50 359 13.0 15.0 0.00 0.00 0.00 46 1017.5
20260502091229 52 352 12.0 13.0 0.00 0.00 0.00 41 1016.3
20260502090726 53 354 14.0 15.0 0.00 0.00 0.00 41 1016.3
20260502090223 53 352 11.0 13.0 0.00 0.00 0.00 40 1016.5
20260502071124 57 337 5.0 7.0 0.00 0.00 0.00 33 1016.3
20260502070622 53 345 6.0 8.0 0.00 0.00 0.00 36 1016.5
20260502070120 54 336 6.0 8.0 0.00 0.00 0.00 38 1016.4
20260502065618 54 352 7.0 9.0 0.00 0.00 0.00 36 1016.2
20260502065115 54 346 8.0 10.0 0.00 0.00 0.00 37 1016.3
20260502064614 55 349 8.0 9.0 0.00 0.00 0.00 36 1016.4
20260502064111 55 339 9.0 9.0 0.00 0.00 0.00 34 1016.4
20260502063608 54 347 9.0 10.0 0.00 0.00 0.00 36 1016.5
20260502063106 55 349 8.0 10.0 0.00 0.00 0.00 35 1016.0
20260502062603 53 352 9.0 10.0 0.00 0.00 0.00 37 1016.3
20260502062101 54 352 10.0 11.0 0.00 0.00 0.00 37 1016.3
20260502061559 55 353 11.0 11.0 0.00 0.00 0.00 36 1016.2
20260502061056 54 352 9.0 10.0 0.00 0.00 0.00 36 1016.4
20260502060556 56 2 11.0 11.0 0.00 0.00 0.00 34 1016.2
20260502060053 56 0 9.0 11.0 0.00 0.00 0.00 34 1016.0
20260502055550 57 0 9.0 10.0 0.00 0.00 0.00 33 1016.0
20260502055049 56 344 6.0 8.0 0.00 0.00 0.00 33 1016.3
20260502054547 57 355 9.0 9.0 0.00 0.00 0.00 33 1016.2
20260502054044 57 340 8.0 8.0 0.00 0.00 0.00 33 1016.3
20260502053541 58 326 6.0 8.0 0.00 0.00 0.00 32 1016.3
20260502053039 57 333 7.0 8.0 0.00 0.00 0.00 32 1016.3
20260502052537 57 332 6.0 8.0 0.00 0.00 0.00 33 1016.4
20260502052035 58 335 6.0 8.0 0.00 0.00 0.00 31 1016.3
20260502051532 57 320 6.0 8.0 0.00 0.00 0.00 32 1016.2
20260502051030 56 315 5.0 6.0 0.00 0.00 0.00 33 1016.3
20260502050526 56 307 4.0 6.0 0.00 0.00 0.00 34 1016.3
20260502050023 57 294 4.0 7.0 0.00 0.00 0.00 32 1016.3
20260502045520 59 293 5.0 7.0 0.00 0.00 0.00 31 1016.3
20260502045017 60 274 7.0 9.0 0.00 0.00 0.00 29 1016.5
20260502044513 60 280 8.0 9.0 0.00 0.00 0.00 28 1016.3
20260502044010 58 293 6.0 9.0 0.00 0.00 0.00 30 1016.4
20260502043508 57 297 8.0 10.0 0.00 0.00 0.00 31 1016.3
20260502043004 57 305 7.0 8.0 0.00 0.00 0.00 31 1016.3
20260502042459 57 297 7.0 8.0 0.00 0.00 0.00 31 1016.2
20260502041957 57 298 7.0 8.0 0.00 0.00 0.00 31 1016.2
20260502041455 57 297 7.0 8.0 0.00 0.00 0.00 31 1016.0
20260502040951 57 303 7.0 9.0 0.00 0.00 0.00 30 1016.2
20260502040448 57 297 7.0 8.0 0.00 0.00 0.00 31 1016.3
20260502035944 56 305 7.0 8.0 0.00 0.00 0.00 31 1016.2
20260502035440 56 302 6.0 7.0 0.00 0.00 0.00 31 1016.2
20260502034938 57 308 4.0 6.0 0.00 0.00 0.00 31 1016.0
20260502034437 57 270 3.0 3.0 0.00 0.00 0.00 29 1016.2
20260502033935 57 289 2.0 6.0 0.00 0.00 0.00 30 1015.8
20260502033431 56 301 4.0 6.0 0.00 0.00 0.00 30 1015.7
20260502032928 56 306 5.0 6.0 0.00 0.00 0.00 31 1015.8
20260502032424 57 301 2.0 3.0 0.00 0.00 0.00 30 1015.8
20260502031922 59 301 2.0 3.0 0.00 0.00 0.00 27 1015.9
20260502031420 59 239 2.0 2.0 0.00 0.00 0.00 27 1015.9
20260502030918 58 246 0.0 3.0 0.00 0.00 0.00 27 1015.7
20260502030416 59 292 1.0 2.0 0.00 0.00 0.00 27 1015.6
20260502025914 58 293 2.0 4.0 0.00 0.00 0.00 26 1015.7
20260502025410 57 298 0.0 0.0 0.00 0.00 0.00 28 1015.5
20260502024908 58 305 2.0 3.0 0.00 0.00 0.00 28 1015.4
20260502024406 59 302 3.0 3.0 0.00 0.00 0.00 27 1015.3
20260502023904 61 301 2.0 3.0 0.00 0.00 0.00 26 1015.4